Regional Weather Roundup
Issued by NWS Burlington, VT

Home | Current Version | Previous Version | Text Only | Print | Product List | Glossary On
Versions: 1 2 3 4 5 6 7 8 9 10 11 12 13 14 15 16 17 18 19 20 21 22 23 24 25 26 27 28 29 30 31 32 33 34 35 36 37 38 39 40 41 42 43 44 45 46 47 48 49 50
000
ASUS41 KBTV 010610
RWRBTV
VERMONT REGIONAL WEATHER ROUNDUP
NATIONAL WEATHER SERVICE BURLINGTON VT
200 AM EDT TUE SEP 01 2015

NOTE: "FAIR" INDICATES FEW OR NO CLOUDS BELOW 12,000 FEET WITH NO
SIGNIFICANT WEATHER AND/OR OBSTRUCTIONS TO VISIBILITY.

* THESE REPORTS ARE NOT UNDER NWS QUALITY CONTROL AND/OR DO NOT
  REPORT WEATHER SUCH AS PRECIPITATION AND FOG.

VTZ001>019-010700-
_____VERMONT_____


CITY           SKY/WX    TMP DP  RH WIND       PRES   REMARKS
BURLINGTON     FAIR      63  60  90 E7        30.00S
6HR MIN TEMP:  62; 6HR MAX TEMP:  74;

MONTPELIER     FAIR      61  58  90 CALM      30.05F
6HR MIN TEMP:  61; 6HR MAX TEMP:  69;

MORRISVILLE    MOCLDY    61  58  90 SE3       30.02F FOG
6HR MIN TEMP:  59; 6HR MAX TEMP:  73;

ST. JOHNSBURY*   N/A     60  57  89 MISG      29.99S
6HR MIN TEMP:  60; 6HR MAX TEMP:  72;

LYNDONVILLE*   FAIR      64  60  85 CALM      30.03F
6HR MIN TEMP:  61; 6HR MAX TEMP:  67;

MIDDLEBURY*    FAIR      64  64 100 CALM      30.00S
6HR MIN TEMP:  64; 6HR MAX TEMP:  73;

RUTLAND*       FAIR      63  57  82 SE7       30.04R
6HR MIN TEMP:  63; 6HR MAX TEMP:  75;

SPRINGFIELD    FAIR      61  59  93 CALM      30.02S FOG
6HR MIN TEMP:  60; 6HR MAX TEMP:  73;

HIGHGATE*      FAIR      62  61  97 CALM      29.99F FOG
6HR MIN TEMP:  62; 6HR MAX TEMP:  69;

NEWPORT*       FAIR      62  60  94 W3        30.02S
6HR MIN TEMP:  61; 6HR MAX TEMP:  67;

BENNINGTON     FAIR      61  59  93 CALM      30.03S FOG
6HR MIN TEMP:  60; 6HR MAX TEMP:  77;

SUTTON*          N/A     61 N/A N/A MISG        N/A

_____LAKE CHAMPLAIN_____


CITY           SKY/WX    TMP DP  RH WIND       PRES   REMARKS

$$

NYZ007-026>031-035-052-083-010700-
_____NORTHERN NEW YORK_____


CITY           SKY/WX    TMP DP  RH WIND       PRES   REMARKS
PLATTSBURGH    FAIR      66  60  81 W6        29.98F
6HR MIN TEMP:  64; 6HR MAX TEMP:  72;

SARANAC LAKE   FOG       53  52  96 CALM      30.04F VSB 1/2
6HR MIN TEMP:  52; 6HR MAX TEMP:  68;

MASSENA        FOG       58  56  93 CALM      30.01F VSB 1/4
6HR MIN TEMP:  57; 6HR MAX TEMP:  67;

OGDENSBURG*    FOG       59  57  94 CALM      30.01F VSB 1/2
POTSDAM*       FOG       59  59 100 CALM      30.02S VSB 1/4
WATERTOWN      FAIR      62  61  96 E5        30.02R FOG
6HR MIN TEMP:  60; 6HR MAX TEMP:  71;

FT DRUM        FAIR      63  62  97 S5        30.02S FOG
6HR MIN TEMP:  63; 6HR MAX TEMP:  72;

ALBANY         FAIR      66  61  84 CALM      30.02R
6HR MIN TEMP:  66; 6HR MAX TEMP:  79;

GLENS FALLS    FAIR      63  60  90 CALM      30.01S
6HR MIN TEMP:  62; 6HR MAX TEMP:  77;


$$
NHZ002-005-011-010700-
_____NEW HAMPSHIRE_____


CITY           SKY/WX    TMP DP  RH WIND       PRES   REMARKS
LEBANON        FAIR      62  60  93 CALM      30.00S FOG
6HR MIN TEMP:  61; 6HR MAX TEMP:  70;

KEENE          FAIR      61  55  82 CALM      30.01S
6HR MIN TEMP:  61; 6HR MAX TEMP:  73;

MT WASHINGTON  FOG       46  46 100 NW39G48     N/A  VSB 1/16
6HR MIN TEMP:  46; 6HR MAX TEMP:  51; 6HR PCP:  0.04;

PLYMOUTH       FAIR      64  60  88 CALM      29.99S
6HR MIN TEMP:  60; 6HR MAX TEMP:  73;

WHITEFIELD     LGT RAIN  60  57  89 CALM      30.01F
6HR MIN TEMP:  57; 6HR MAX TEMP:  68;


$$

_____REGIONAL QUEBEC LOCATIONS_____


CITY           SKY/WX    TMP DP  RH WIND       PRES   REMARKS
MONTREAL       CLEAR     63  61  94 N3        30.00S
QUEBEC CITY    CLEAR     57  52  82 NW8       29.97R
SHERBROOKE     FOG       55  54  94 CALM      30.00S VSB 3/8

_____REGIONAL ONTARIO LOCATIONS_____


CITY           SKY/WX    TMP DP  RH WIND       PRES   REMARKS
OTTAWA         PTCLDY    61  59  94 W5        30.02S

______KEY______
VSB  - VISIBILITY IN MILES
WCI  - WIND CHILL INDEX
HX   - HEAT INDEX
$$
NNNN



USA.gov is the U.S. government's official web portal to all federal, state and local government web resources and services.